[[{"header":{"parameterUnit":"m.s-1","parameterCategory":1,"la1":30.2991,"la2":30.254,"lo1":-89.0895,"lo2":-89.0444,"dy":0.0017,"dx":0.0017,"nx":28,"ny":28,"refTime":"2025-11-27T09:00:00:Z","depth":0,"parameterNumber":2,"parameterNumberName":"U-component_of_WINDS"},"data":[0,0,0,0,0,0,0,0,0,0,0,0,0,0,0,0,0,0,0,0,0,0,0,0,0,0,0,0,0,0,0,0,0,0,0,0,0,0,0,0,0,0,0,0,0,0,0,0,0,0,0,0,0,0,0,0,0,0,-1.6414,-1.6414,0,-1.6448,-1.6449,-1.6449,-1.6376,-1.6373,-1.6371,-1.6369,-1.6406,-1.6409,-1.6412,0,0,0,0,0,0,0,0,0,0,0,0,0,-1.6285,-1.6287,-1.6414,-1.6414,-1.6415,-1.6448,-1.6449,-1.6449,-1.6376,-1.6373,-1.637,-1.6368,-1.6405,-1.6409,-1.6413,0,0,0,0,0,0,0,0,0,0,0,0,0,-1.6332,-1.6288,-1.6414,-1.6382,-1.638,-1.6448,-1.6449,-1.6449,-1.6377,-1.6373,-1.637,-1.6366,-1.6404,-1.6408,-1.6413,-1.6514,0,0,-1.6428,-1.643,0,0,0,0,0,0,0,0,-1.633,-1.6337,-1.6386,-1.6385,-1.6382,-1.6404,-1.6417,-1.6471,-1.6378,-1.6378,-1.6369,-1.6365,-1.6408,-1.6413,-1.6427,-1.6516,-1.6518,-1.6428,-1.6431,-1.6433,-1.6435,0,0,0,0,0,0,0,-1.6326,-1.6335,-1.6427,-1.6387,-1.6384,-1.6366,-1.6369,-1.6427,-1.6413,-1.6378,-1.6373,-1.6378,-1.6406,-1.6423,-1.6427,-1.6518,-1.6428,-1.6432,-1.6435,-1.6437,-1.6691,-1.6695,0,0,0,0,0,0,-1.6327,-1.6333,-1.6426,-1.6428,-1.6346,-1.6372,-1.6375,-1.6401,-1.6412,-1.641,-1.6381,-1.6374,-1.6416,-1.6422,-1.6428,-1.6548,-1.6433,-1.6438,-1.6441,-1.6687,-1.6692,-1.6696,0,0,0,0,0,0,-1.6325,-1.6336,-1.6425,-1.6379,-1.6389,-1.6378,-1.6407,-1.6403,-1.6419,-1.6414,-1.6411,-1.64,-1.6413,-1.6422,-1.6493,-1.6548,-1.644,-1.6444,-1.6683,-1.6688,-1.6694,-1.6787,0,0,0,0,0,0,-1.6321,-1.6336,-1.6374,-1.6381,-1.6392,-1.649,-1.6411,-1.6406,-1.6427,-1.6419,-1.6431,-1.643,-1.6411,-1.6486,-1.6498,-1.6553,-1.6448,-1.6678,-1.6685,-1.6692,-1.6779,-1.6796,-1.681,0,0,0,0,0,-1.6317,-1.64,-1.6377,-1.6388,-1.644,-1.6493,-1.6499,-1.6476,-1.6432,-1.6471,-1.6467,-1.6429,-1.6539,-1.6494,-1.6507,-1.6564,-1.6674,-1.6683,-1.6691,-1.6773,-1.6792,-1.6809,0,0,0,0,0,0,-1.6401,-1.64,-1.6374,-1.6462,-1.6478,-1.6481,-1.6529,-1.6498,-1.6527,-1.6519,-1.6488,-1.6492,-1.6569,-1.6573,-1.6523,-1.6662,-1.6599,-1.6611,-1.6657,-1.6676,-1.669,-1.6689,-1.6452,0,0,0,0,0,-1.643,-1.6473,-1.6469,-1.6547,-1.6556,-1.6541,-1.6563,-1.6544,-1.6559,-1.6566,-1.6568,-1.6585,-1.6623,-1.6649,-1.6684,-1.6778,-1.678,-1.6823,-1.6838,-1.6851,-1.6862,-1.6912,-1.6932,-1.6724,-1.6724,-1.6724,0,0,-1.649,-1.6494,-1.6524,-1.6564,-1.6574,-1.662,-1.6548,-1.6599,-1.6632,-1.6574,-1.6642,-1.6643,-1.666,-1.6744,-1.678,-1.6749,-1.6919,-1.6862,-1.6872,-1.6876,-1.6923,-1.6943,-1.696,-1.673,-1.6729,-1.6728,0,0,-1.6623,-1.663,-1.6696,-1.6707,-1.6722,-1.6711,-1.6727,-1.6734,-1.6732,-1.68,-1.6757,-1.6795,-1.6862,-1.6876,-1.6891,-1.7027,-1.6993,-1.7038,-1.7118,-1.7168,-1.7184,-1.7198,-1.7247,-1.7265,-1.7049,-1.7049,-1.7049,0,-1.6696,-1.6763,-1.6733,-1.6787,-1.6806,-1.6754,-1.682,-1.6832,-1.6859,-1.6873,-1.6837,-1.6918,-1.6926,-1.7012,-1.7045,-1.7059,-1.7076,-1.7039,-1.7184,-1.7198,-1.7211,-1.7257,-1.7276,-1.7055,-1.7054,-1.7054,-1.7053,0,-1.6852,-1.6899,-1.6949,-1.6976,-1.7,-1.706,-1.7039,-1.7067,-1.7044,-1.7037,-1.7106,-1.7112,-1.7147,-1.7165,-1.7144,-1.7248,-1.7228,-1.7189,-1.7126,-1.7237,-1.728,-1.7297,-1.7063,-1.7061,-1.7059,-1.7058,0,0,-1.7043,-1.705,-1.7069,-1.708,-1.7092,-1.7128,-1.7184,-1.7218,-1.7243,-1.7261,-1.7309,-1.7365,-1.7328,-1.7345,-1.7325,-1.7367,-1.7475,-1.7322,-1.7322,-1.7352,-1.759,-1.7622,-1.7643,-1.7451,-1.7454,-1.7457,-1.7589,0,-1.7176,-1.7273,-1.7247,-1.7345,-1.7387,-1.7336,-1.7385,-1.7398,-1.7392,-1.7427,-1.742,-1.7461,-1.7408,-1.7418,-1.7458,-1.7453,-1.7523,-1.7443,-1.7496,-1.7498,-1.7496,-1.7665,-1.7699,-1.7824,-1.7606,-1.7609,-1.7611,0,-1.7345,-1.7369,-1.7471,-1.7475,-1.7491,-1.7536,-1.7564,-1.7598,-1.7611,-1.7603,-1.7622,-1.7592,-1.7647,-1.7582,-1.7658,-1.7605,-1.7624,-1.7625,-1.7629,-1.7635,-1.7563,-1.7678,-1.7863,-1.7883,-1.7637,-1.7635,-1.7633,0,-1.7475,-1.7534,-1.7602,-1.7612,-1.7618,-1.7651,-1.7655,-1.7664,-1.7685,-1.7709,-1.7722,-1.7753,-1.777,-1.7794,-1.7773,-1.7727,-1.7853,-1.7785,-1.7849,-1.7849,-1.788,-1.7879,-1.8073,-1.7889,-1.7889,-1.7888,-1.7888,0,-1.7628,-1.7692,-1.766,-1.7703,-1.7773,-1.7742,-1.7812,-1.781,-1.7818,-1.7859,-1.7816,-1.7855,-1.7823,-1.786,-1.7843,-1.7909,-1.7917,-1.7913,-1.7908,-1.7918,-1.7919,-1.7932,-1.7924,-1.7893,-1.7892,-1.7891,-1.789,0,-1.7787,-1.7768,-1.784,-1.7838,-1.7839,-1.7891,-1.789,-1.7929,-1.7918,-1.797,-1.7981,-1.7965,-1.8005,-1.7985,-1.8027,-1.8016,-1.8101,-1.8084,-1.8097,-1.8094,-1.8159,-1.8154,-1.837,-1.8397,-1.8194,-1.8196,-1.8198,0,-1.7887,-1.7935,-1.7939,-1.7962,-1.7969,-1.8008,-1.8029,-1.7999,-1.8023,-1.8039,-1.8076,-1.8112,-1.814,-1.8207,-1.8199,-1.8231,-1.8215,-1.8288,-1.822,-1.8228,-1.8218,-1.8216,-1.8221,-1.8304,-1.8306,-1.8308,-1.8309,0,-1.8067,-1.8054,-1.8086,-1.8114,-1.814,-1.8161,-1.8178,-1.82,-1.817,-1.8199,-1.8239,-1.8261,-1.8302,-1.8339,-1.8366,-1.837,-1.8336,-1.833,-1.8347,-1.8359,-1.8366,-1.8364,-1.8137,-1.8326,-1.8325,-1.8323,-1.8323,-1.8322,-1.8201,-1.8241,-1.8249,-1.8286,-1.8295,-1.8311,-1.8348,-1.8341,-1.8373,-1.8405,-1.8385,-1.8432,-1.8442,-1.8474,-1.8482,-1.8519,-1.849,-1.8513,-1.852,-1.8527,-1.8536,-1.8357,-1.8523,-1.8523,-1.8522,-1.8522,-1.8521,0,-1.838,-1.8382,-1.8415,-1.844,-1.8468,-1.843,-1.8447,-1.8474,-1.8516,-1.8527,-1.8554,-1.86,-1.8635,-1.8629,-1.866,-1.869,-1.8675,-1.87,-1.8699,-1.87,-1.856,-1.8543,-1.8712,-1.8712,-1.8712,-1.8712,-1.8712,-1.8711,-1.8476,-1.8542,-1.8531,-1.86,-1.8601,-1.8647,-1.866,-1.8675,-1.8684,-1.8736,-1.8765,-1.876,-1.8764,-1.8795,-1.8825,-1.8822,-1.8836,-1.8867,-1.8859,-1.8729,-1.871,-1.8692,-1.8676,-1.887,-1.887,-1.8996,-1.8997,-1.8998]},{"header":{"parameterUnit":"m.s-1","parameterCategory":1,"la1":30.2991,"la2":30.254,"lo1":-89.0895,"lo2":-89.0444,"dy":0.0017,"dx":0.0017,"nx":28,"ny":28,"refTime":"2025-11-27T09:00:00:Z","depth":0,"parameterNumber":3,"parameterNumberName":"V-component_of_WINDS"},"data":[0,0,0,0,0,0,0,0,0,0,0,0,0,0,0,0,0,0,0,0,0,0,0,0,0,0,0,0,0,0,0,0,0,0,0,0,0,0,0,0,0,0,0,0,0,0,0,0,0,0,0,0,0,0,0,0,0,0,-7.7179,-7.7181,0,-7.7346,-7.7348,-7.735,-7.7243,-7.7238,-7.7233,-7.7229,-7.7394,-7.7403,-7.7411,0,0,0,0,0,0,0,0,0,0,0,0,0,-7.676,-7.6769,-7.7179,-7.7181,-7.7183,-7.7346,-7.7348,-7.735,-7.7244,-7.7238,-7.7232,-7.7226,-7.7391,-7.7401,-7.7412,0,0,0,0,0,0,0,0,0,0,0,0,0,-7.6936,-7.6771,-7.7178,-7.715,-7.7149,-7.7345,-7.7348,-7.7351,-7.7245,-7.7238,-7.7231,-7.7224,-7.7387,-7.74,-7.7414,-7.7646,0,0,-7.7455,-7.7461,0,0,0,0,0,0,0,0,-7.6926,-7.6952,-7.7152,-7.7152,-7.7151,-7.7266,-7.7261,-7.7449,-7.7247,-7.7209,-7.7229,-7.722,-7.7357,-7.7372,-7.742,-7.7653,-7.7661,-7.7456,-7.7464,-7.747,-7.7474,0,0,0,0,0,0,0,-7.6914,-7.6944,-7.7244,-7.7155,-7.7155,-7.7126,-7.7143,-7.7296,-7.7322,-7.7211,-7.7204,-7.7226,-7.7355,-7.7407,-7.7423,-7.7663,-7.7456,-7.7468,-7.7476,-7.7481,-7.8094,-7.8101,0,0,0,0,0,0,-7.6905,-7.6934,-7.7239,-7.725,-7.7019,-7.714,-7.7159,-7.7237,-7.732,-7.7326,-7.7232,-7.722,-7.7388,-7.7407,-7.7428,-7.7705,-7.747,-7.7483,-7.7491,-7.8086,-7.8095,-7.8104,0,0,0,0,0,0,-7.6897,-7.6934,-7.7232,-7.709,-7.7126,-7.7155,-7.7244,-7.7244,-7.7296,-7.7336,-7.7339,-7.7281,-7.7383,-7.7409,-7.7593,-7.771,-7.7489,-7.7501,-7.8076,-7.8089,-7.81,-7.8261,0,0,0,0,0,0,-7.6885,-7.6931,-7.7021,-7.7093,-7.7134,-7.7397,-7.7251,-7.7253,-7.732,-7.7306,-7.7382,-7.7388,-7.7379,-7.7573,-7.7606,-7.7724,-7.7512,-7.8066,-7.8082,-7.8096,-7.8246,-7.8278,-7.8305,0,0,0,0,0,-7.6871,-7.7059,-7.7027,-7.7064,-7.7248,-7.7404,-7.7427,-7.7415,-7.733,-7.742,-7.7445,-7.7385,-7.7691,-7.7593,-7.7629,-7.7753,-7.8058,-7.8077,-7.8095,-7.8232,-7.8271,-7.8304,0,0,0,0,0,0,-7.6998,-7.7068,-7.7033,-7.725,-7.7322,-7.7386,-7.7499,-7.7456,-7.7552,-7.7535,-7.7513,-7.7531,-7.7723,-7.7756,-7.7645,-7.7981,-7.7861,-7.7888,-7.7953,-7.7991,-7.802,-7.8008,-7.7523,0,0,0,0,0,-7.7052,-7.7175,-7.7228,-7.7415,-7.7453,-7.747,-7.7537,-7.7522,-7.7594,-7.7624,-7.7662,-7.7733,-7.7845,-7.7919,-7.8024,-7.8249,-7.8264,-7.8352,-7.8382,-7.8406,-7.8429,-7.855,-7.8589,-7.8164,-7.8164,-7.8164,0,0,-7.7164,-7.7217,-7.7296,-7.7442,-7.7496,-7.7622,-7.7496,-7.7634,-7.7727,-7.7644,-7.782,-7.7851,-7.7928,-7.8134,-7.8226,-7.8167,-7.8549,-7.8429,-7.8448,-7.8458,-7.8573,-7.8613,-7.8649,-7.8177,-7.8175,-7.8173,0,0,-7.7432,-7.7486,-7.7647,-7.7704,-7.7787,-7.7797,-7.7836,-7.7906,-7.7924,-7.8101,-7.8041,-7.8149,-7.8343,-7.84,-7.8455,-7.8744,-7.8692,-7.8779,-7.8934,-7.9051,-7.9085,-7.9114,-7.9217,-7.9255,-7.8802,-7.8802,-7.8802,0,-7.756,-7.775,-7.7734,-7.7878,-7.7944,-7.7876,-7.8038,-7.8093,-7.8206,-7.8251,-7.8184,-7.8425,-7.8472,-7.869,-7.8761,-7.8807,-7.8849,-7.8771,-7.9082,-7.9111,-7.9138,-7.9236,-7.9275,-7.8812,-7.8811,-7.881,-7.8809,0,-7.7903,-7.8035,-7.8155,-7.8268,-7.8347,-7.8499,-7.8504,-7.8585,-7.8562,-7.8579,-7.8759,-7.8813,-7.8928,-7.8978,-7.8956,-7.9192,-7.9153,-7.9084,-7.8963,-7.9189,-7.9281,-7.9318,-7.8826,-7.8823,-7.882,-7.8817,0,0,-7.8258,-7.8361,-7.8405,-7.8455,-7.8542,-7.8643,-7.879,-7.8905,-7.8975,-7.9054,-7.9176,-7.9341,-7.9278,-7.934,-7.9324,-7.9428,-7.9653,-7.9345,-7.9347,-7.9401,-7.9916,-7.9968,-8.0012,-7.9619,-7.9626,-7.9631,-7.9909,0,-7.8531,-7.8793,-7.8783,-7.9025,-7.9146,-7.9083,-7.9211,-7.9277,-7.9296,-7.9399,-7.9418,-7.9536,-7.9444,-7.9481,-7.958,-7.9605,-7.9756,-7.9584,-7.9731,-7.9737,-7.9715,-8.006,-8.0115,-8.0375,-7.9945,-7.9951,-7.9955,0,-7.8886,-7.898,-7.9236,-7.9305,-7.9355,-7.9471,-7.9575,-7.9675,-7.9747,-7.9753,-7.9823,-7.979,-7.9937,-7.9812,-8.0014,-7.9897,-7.9956,-7.9977,-7.9986,-8.0,-7.986,-8.0083,-8.0458,-8.0497,-8.0012,-8.0007,-8.0003,0,-7.912,-7.931,-7.9487,-7.9532,-7.9617,-7.97,-7.9738,-7.9804,-7.9873,-7.9962,-8.0006,-8.0111,-8.0169,-8.0249,-8.0244,-8.0154,-8.0449,-8.0323,-8.0457,-8.0457,-8.0523,-8.0519,-8.0913,-8.056,-8.0559,-8.0559,-8.0558,0,-7.9427,-7.9586,-7.9594,-7.9703,-7.9878,-7.9864,-8.0037,-8.0066,-8.0125,-8.0237,-8.0187,-8.0293,-8.028,-8.0385,-8.0382,-8.0549,-8.0575,-8.0583,-8.058,-8.0589,-8.0588,-8.0627,-8.0609,-8.0569,-8.0567,-8.0565,-8.0563,0,-7.9718,-7.973,-7.9919,-7.9984,-8.0004,-8.013,-8.0184,-8.0287,-8.03,-8.0443,-8.0475,-8.0497,-8.0619,-8.0622,-8.0761,-8.0758,-8.0963,-8.0939,-8.094,-8.0935,-8.1069,-8.1057,-8.1503,-8.1561,-8.117,-8.1173,-8.1177,0,-7.9914,-8.0036,-8.0114,-8.0186,-8.0231,-8.0348,-8.0419,-8.0408,-8.0483,-8.0575,-8.0666,-8.0783,-8.0877,-8.1074,-8.11,-8.1206,-8.1185,-8.1334,-8.12,-8.1205,-8.1188,-8.1181,-8.1193,-8.136,-8.1365,-8.1368,-8.1371,0,-8.0261,-8.0261,-8.0366,-8.0474,-8.056,-8.0643,-8.0721,-8.0782,-8.078,-8.0866,-8.0992,-8.1065,-8.1207,-8.1324,-8.1426,-8.1462,-8.1417,-8.1413,-8.1449,-8.1459,-8.1455,-8.1459,-8.1011,-8.1403,-8.14,-8.1397,-8.1396,-8.1394,-8.0511,-8.0615,-8.0687,-8.0805,-8.0863,-8.0936,-8.1036,-8.1063,-8.1168,-8.1285,-8.1271,-8.141,-8.1477,-8.161,-8.1656,-8.1763,-8.1711,-8.1764,-8.1777,-8.1791,-8.1806,-8.1437,-8.1781,-8.178,-8.1779,-8.1778,-8.1778,0,-8.0855,-8.0898,-8.1007,-8.1118,-8.1211,-8.1161,-8.1243,-8.1324,-8.1448,-8.1516,-8.1609,-8.1752,-8.1865,-8.1901,-8.2009,-8.2088,-8.207,-8.2117,-8.2111,-8.212,-8.1846,-8.1803,-8.213,-8.213,-8.213,-8.213,-8.213,-8.213,-8.1045,-8.122,-8.1228,-8.1429,-8.147,-8.1608,-8.1659,-8.1726,-8.178,-8.1943,-8.2038,-8.206,-8.2115,-8.2227,-8.2327,-8.2335,-8.2377,-8.2434,-8.2432,-8.2175,-8.214,-8.2106,-8.2066,-8.2443,-8.2443,-8.2698,-8.27,-8.2702]}]]